Simultaneous Nadir Overpasses (SNOs) Predictions

Prediction of SNOs between FY3D and NOAA-19 Satellite Orbit:

Table of predicted SNOs for the next 14.0 days since TLE Epoch: 8/31/2019
Index Date (FY3D) Time (FY3D) Lat,Lon (FY3D) SZA (FY3D ) Date (NOAA-19) Time (NOAA-19) Lat,Lon (NOAA-19) SZA (NOAA-19 ) Distance(km) Time Diff (sec)
1 09/01/2019 19:13:38 79.97,-145.71 73.87 09/01/2019 19:12:36 79.96,-145.74 73.90 1.05 62
2 09/01/2019 20:04:22 -79.98, 21.54 106.10 09/01/2019 20:03:31 -79.97, 21.70 106.10 3.05 51
3 09/01/2019 20:55:07 79.97,-171.03 73.89 09/01/2019 20:54:36 79.98,-171.00 73.91 1.80 31
4 09/01/2019 21:45:51 -79.97, -3.79 106.09 09/01/2019 21:45:32 -79.97, -3.88 106.07 1.72 19
5 09/01/2019 22:36:37 79.99, 163.34 73.96 09/01/2019 22:36:37 79.98, 163.43 73.94 2.43 0
6 09/01/2019 23:27:20 -79.97, -29.12 106.07 09/01/2019 23:27:32 -79.99, -29.14 106.06 2.17 12
7 09/02/2019 00:18:06 79.99, 138.01 73.98 09/02/2019 00:18:37 79.99, 138.17 73.95 3.05 31
8 09/02/2019 01:08:50 -79.99, -54.74 106.00 09/02/2019 01:09:33 -79.98, -54.71 106.03 1.40 43
9 09/02/2019 01:59:35 79.98, 112.68 74.00 09/02/2019 02:00:38 79.99, 112.59 73.98 1.90 63




NCC Satellite Simultaneous Nadir Overpasses (SNOs) Prediction Service
